User: anonymous   Login
Location: Unspecified
(0.0000°N, 0.0000°E)
Time: 09:33:16
(UTC+01:00)
Language:

Cosmos 1953 Rocket - Orbit

View from above orbital plane
View from above orbital plane
View from above satellite
View from above satellite

Ground track
Ground track

The orbit data is extracted from the following two-line orbital elements,

1 19211U 88050B   14355.54272395  .00000934  00000-0  11278-3 0  4308
2 19211 082.5270 332.0615 0021080 227.4127 272.1702 14.82587185432139
Epoch (UTC): 21 December 2014 13:01:31
Eccentricity: 0.0021080
inclination: 82.5270°
perigee height: 606 km
apogee height: 636 km
right ascension of ascending node: 332.0615°
argument of perigee: 227.4127°
revolutions per day: 14.82587185
mean anomaly at epoch: 272.1702°
orbit number at epoch: 43213

The dashed part of the orbit path shows where the satellite is in the earth's shadow,  

DLR